[[{"header":{"parameterUnit":"m.s-1","parameterCategory":2,"la1":30.2992,"la2":30.254,"lo1":-89.0895,"lo2":-89.0443,"dy":0.0025,"dx":0.0025,"nx":19,"ny":19,"refTime":"2026-05-21T09:00:00:Z","depth":"0","parameterNumber":2,"parameterNumberName":"U-component_of_CURRENTS"},"data":[0,0,0,-0.1624,-0.1626,-0.1739,-0.1739,-0.1793,-0.1793,0,0,0,0,0,0,0,0,0,0,0,-0.1573,-0.1573,-0.1623,-0.1627,-0.1739,-0.1739,-0.1793,-0.1793,0,0,0,0,0,0,0,0,0,0,0,-0.1572,-0.1573,-0.1574,-0.1627,-0.1739,-0.1739,-0.1793,-0.1729,0,0,0,0,0,0,0,0,0,0,-0.163,-0.1596,-0.1573,-0.1574,-0.1628,-0.1739,-0.1739,-0.1727,-0.1733,-0.1718,0,-0.1736,0,-0.1773,-0.1795,-0.1795,0,0,0,-0.162,-0.1591,-0.1627,-0.1574,-0.1629,-0.1738,-0.1686,-0.1731,-0.1737,-0.1726,-0.1738,-0.1741,-0.1774,-0.1796,-0.1796,-0.1876,-0.1876,0,0,-0.1614,-0.1586,-0.1623,-0.1631,-0.1657,-0.1683,-0.169,-0.1736,-0.1736,-0.1738,-0.1743,-0.1775,-0.1796,-0.1796,-0.1875,-0.1876,0,0,0,-0.16,-0.1582,-0.1619,-0.1628,-0.166,-0.1686,-0.1694,-0.1734,-0.1749,-0.1744,-0.1775,-0.1796,-0.1796,-0.1874,-0.1875,-0.1908,0,0,0,-0.1596,-0.1575,-0.1616,-0.16,-0.1659,-0.1711,-0.1691,-0.1745,-0.1752,-0.1775,-0.1796,-0.1797,-0.1874,-0.1875,-0.1906,-0.1918,0,0,0,-0.1568,-0.1572,-0.1586,-0.1598,-0.1652,-0.1712,-0.1729,-0.1748,-0.1771,-0.1795,-0.1797,-0.1873,-0.1875,-0.1904,-0.1914,-0.196,0,0,0,-0.1534,-0.1574,-0.1586,-0.1645,-0.1651,-0.1756,-0.1729,-0.179,-0.1815,-0.1796,-0.1874,-0.1875,-0.1903,-0.1912,-0.1958,-0.1961,-0.1972,0,0,-0.157,-0.1577,-0.1617,-0.1632,-0.1733,-0.174,-0.1835,-0.1843,-0.1831,-0.1849,-0.1852,-0.1907,-0.1914,-0.1959,-0.2048,-0.2057,0,0,0,-0.1621,-0.164,-0.1677,-0.1735,-0.1807,-0.186,-0.1887,-0.1895,-0.1912,-0.1856,-0.1928,-0.1932,-0.196,-0.1957,-0.1965,-0.1807,-0.1882,-0.1882,-0.1882,-0.1609,-0.1666,-0.1731,-0.1803,-0.1865,-0.1943,-0.1982,-0.1993,-0.197,-0.1982,-0.1975,-0.2054,-0.2053,-0.2058,-0.1896,-0.1995,-0.1995,-0.1995,-0.1996,-0.1647,-0.1678,-0.1747,-0.1821,-0.1892,-0.1959,-0.2043,-0.2044,-0.2086,-0.2041,-0.2066,-0.2012,-0.2068,-0.1892,-0.1998,-0.1998,-0.1997,-0.1997,-0.1997,-0.1619,-0.1641,-0.1687,-0.1774,-0.1855,-0.1943,-0.2011,-0.2066,-0.2106,-0.2137,-0.213,-0.2129,-0.196,-0.2141,-0.2141,-0.2141,-0.2142,-0.2142,-0.2142,-0.1556,-0.1613,-0.1629,-0.1722,-0.176,-0.184,-0.1978,-0.2045,-0.2144,-0.2174,-0.2174,-0.1973,-0.2098,-0.2076,-0.2146,-0.2145,-0.2145,-0.2144,-0.2144,-0.1512,-0.1515,-0.1543,-0.1568,-0.1658,-0.1679,-0.1851,-0.2019,-0.2126,-0.2187,-0.2041,-0.2206,-0.2198,-0.2191,-0.2172,-0.2263,-0.2263,-0.2263,-0.2263,-0.1441,-0.1459,-0.1452,-0.1472,-0.1521,-0.16,-0.1638,-0.1836,-0.199,-0.2,-0.1999,-0.1933,-0.1935,-0.1906,-0.1906,-0.1879,-0.1894,-0.1893,-0.1892,-0.1384,-0.1397,-0.136,-0.1395,-0.1449,-0.1478,-0.1458,-0.1563,-0.179,-0.1859,-0.1778,-0.1794,-0.1676,-0.1692,-0.1629,-0.1642,-0.1592,0,0]},{"header":{"parameterUnit":"m.s-1","parameterCategory":2,"la1":30.2992,"la2":30.254,"lo1":-89.0895,"lo2":-89.0443,"dy":0.0025,"dx":0.0025,"nx":19,"ny":19,"refTime":"2026-05-21T09:00:00:Z","depth":"0","parameterNumber":3,"parameterNumberName":"V-component_of_CURRENTS"},"data":[0,0,0,-0.042,-0.0419,-0.0326,-0.0325,-0.0146,-0.0144,0,0,0,0,0,0,0,0,0,0,0,-0.0448,-0.0448,-0.042,-0.0419,-0.0326,-0.0325,-0.0146,-0.0144,0,0,0,0,0,0,0,0,0,0,0,-0.0448,-0.0448,-0.0448,-0.0419,-0.0326,-0.0325,-0.0146,-0.0225,0,0,0,0,0,0,0,0,0,0,-0.0319,-0.0357,-0.0448,-0.0448,-0.0418,-0.0326,-0.0325,-0.0229,-0.022,-0.018,0,-0.0184,0,-0.0173,-0.0134,-0.0133,0,0,0,-0.0389,-0.0365,-0.0354,-0.0448,-0.0418,-0.0326,-0.0359,-0.0224,-0.0214,-0.0168,-0.0181,-0.0175,-0.017,-0.0133,-0.0132,-0.004,-0.0041,0,0,-0.0395,-0.0409,-0.0361,-0.0348,-0.0416,-0.0363,-0.0357,-0.0218,-0.0207,-0.0181,-0.0171,-0.0167,-0.0132,-0.013,-0.004,-0.0041,0,0,0,-0.0429,-0.0413,-0.0405,-0.0355,-0.0351,-0.0361,-0.0354,-0.0212,-0.0215,-0.0169,-0.0165,-0.0131,-0.0129,-0.004,-0.004,-0.0135,0,0,0,-0.0431,-0.0435,-0.0408,-0.0412,-0.0354,-0.0287,-0.0352,-0.0224,-0.0209,-0.0166,-0.0131,-0.0127,-0.004,-0.004,-0.0132,-0.0204,0,0,0,-0.0449,-0.0436,-0.0436,-0.0414,-0.0389,-0.029,-0.0282,-0.022,-0.0207,-0.0133,-0.0127,-0.004,-0.004,-0.0129,-0.0198,-0.0277,0,0,0,-0.045,-0.0466,-0.0437,-0.0445,-0.0391,-0.0362,-0.0283,-0.0236,-0.0182,-0.013,-0.004,-0.004,-0.0129,-0.0194,-0.0273,-0.0341,-0.0367,0,0,-0.0476,-0.0469,-0.0475,-0.0448,-0.0456,-0.0372,-0.0348,-0.0243,-0.0172,-0.0075,-0.0073,-0.0133,-0.0197,-0.0276,-0.0367,-0.0393,0,0,0,-0.0487,-0.0498,-0.0492,-0.0488,-0.0453,-0.0421,-0.0317,-0.0268,-0.0184,-0.0147,-0.0116,-0.0153,-0.0201,-0.0231,-0.0251,0.0168,-0.0042,-0.0042,-0.0042,-0.0525,-0.0522,-0.0546,-0.0538,-0.0513,-0.0441,-0.0408,-0.032,-0.0226,-0.0209,-0.0217,-0.0326,-0.0357,-0.0373,0.0062,-0.0183,-0.0184,-0.0184,-0.0184,-0.0584,-0.0605,-0.0601,-0.0627,-0.0596,-0.0566,-0.0476,-0.0419,-0.038,-0.0282,-0.0323,-0.0312,-0.0401,0.0071,-0.019,-0.0189,-0.0188,-0.0188,-0.0187,-0.0617,-0.0633,-0.0653,-0.0696,-0.071,-0.0652,-0.069,-0.0591,-0.0495,-0.0521,-0.0546,-0.0545,-0.0145,-0.0536,-0.0536,-0.0537,-0.0538,-0.0538,-0.0538,-0.064,-0.0667,-0.0727,-0.0767,-0.0808,-0.0838,-0.0814,-0.0833,-0.0784,-0.068,-0.068,-0.0125,-0.0433,-0.0437,-0.0549,-0.0547,-0.0546,-0.0545,-0.0544,-0.0677,-0.069,-0.0792,-0.0851,-0.0968,-0.1094,-0.1069,-0.1146,-0.1118,-0.1136,-0.034,-0.0759,-0.0746,-0.0728,-0.0738,-0.0922,-0.0922,-0.0922,-0.0922,-0.0692,-0.0708,-0.0853,-0.0977,-0.1116,-0.121,-0.1437,-0.1374,-0.0859,-0.0428,-0.0251,-0.0094,-0.0098,-0.0033,-0.0031,-0.002,-0.0017,-0.0015,-0.0013,-0.0713,-0.0765,-0.0873,-0.1012,-0.1186,-0.1375,-0.1604,-0.1346,-0.0354,0.0077,0.0354,0.0315,0.0606,0.0566,0.0717,0.0686,0.0719,0,0]}],[{"header":{"parameterUnit":"m.s-1","parameterCategory":2,"la1":30.2992,"la2":30.254,"lo1":-89.0895,"lo2":-89.0443,"dy":0.0025,"dx":0.0025,"nx":19,"ny":19,"refTime":"2026-05-21T09:00:00:Z","depth":"2","parameterNumber":2,"parameterNumberName":"U-component_of_CURRENTS"},"data":[0,0,0,-0.1809,-0.1811,-0.1876,-0.1876,-0.1838,-0.1838,0,0,0,0,0,0,0,0,0,0,0,-0.1768,-0.1768,-0.1809,-0.1811,-0.1876,-0.1876,-0.1838,-0.1838,0,0,0,0,0,0,0,0,0,0,0,-0.1768,-0.1768,-0.1769,-0.1812,-0.1876,-0.1876,-0.1838,-0.1817,0,0,0,0,0,0,0,0,0,0,-0.1768,-0.1738,-0.1768,-0.1769,-0.1812,-0.1876,-0.1876,-0.1817,-0.1818,-0.1777,0,-0.1784,0,-0.182,-0.1833,-0.1833,0,0,0,-0.1801,-0.1737,-0.1772,-0.1769,-0.1813,-0.1876,-0.1844,-0.1819,-0.182,-0.1778,-0.1785,-0.1785,-0.1819,-0.1833,-0.1832,-0.181,-0.181,0,0,-0.1797,-0.1761,-0.1772,-0.1773,-0.1823,-0.1842,-0.1846,-0.1821,-0.1805,-0.1785,-0.1785,-0.1819,-0.1832,-0.1832,-0.181,-0.181,0,0,0,-0.1794,-0.1758,-0.1796,-0.1773,-0.18,-0.1844,-0.1849,-0.1806,-0.1823,-0.1785,-0.1818,-0.1832,-0.1831,-0.1809,-0.181,-0.1867,0,0,0,-0.1791,-0.1758,-0.1794,-0.177,-0.1802,-0.1818,-0.1834,-0.1825,-0.1824,-0.1818,-0.1832,-0.183,-0.1809,-0.181,-0.1865,-0.1888,0,0,0,-0.1766,-0.1755,-0.1765,-0.1769,-0.1807,-0.1821,-0.1836,-0.1826,-0.1844,-0.1833,-0.183,-0.1809,-0.181,-0.1863,-0.1885,-0.1954,0,0,0,-0.1724,-0.1739,-0.1763,-0.1789,-0.1806,-0.1866,-0.1837,-0.1859,-0.1854,-0.1832,-0.1809,-0.181,-0.1863,-0.1883,-0.1951,-0.1949,-0.1962,0,0,-0.1728,-0.1738,-0.176,-0.1785,-0.185,-0.1857,-0.1907,-0.1882,-0.1846,-0.1806,-0.1807,-0.1866,-0.1884,-0.1953,-0.1982,-0.1994,0,0,0,-0.1753,-0.1763,-0.1786,-0.1827,-0.1876,-0.1921,-0.1915,-0.1907,-0.1886,-0.1849,-0.1862,-0.1871,-0.1913,-0.1905,-0.1915,-0.1813,-0.1812,-0.1812,-0.1812,-0.169,-0.1752,-0.1794,-0.1866,-0.1905,-0.1959,-0.1984,-0.1968,-0.1918,-0.1917,-0.1915,-0.2,-0.1991,-0.1999,-0.1912,-0.1912,-0.1913,-0.1913,-0.1913,-0.1697,-0.1728,-0.1806,-0.1868,-0.1938,-0.1978,-0.2031,-0.202,-0.2032,-0.1966,-0.2004,-0.1961,-0.2013,-0.1917,-0.1916,-0.1916,-0.1915,-0.1915,-0.1915,-0.1649,-0.168,-0.1727,-0.1824,-0.1908,-0.1984,-0.2062,-0.2074,-0.2081,-0.2111,-0.2108,-0.2106,-0.2052,-0.2131,-0.2131,-0.2132,-0.2132,-0.2132,-0.2132,-0.1578,-0.1639,-0.1673,-0.1779,-0.184,-0.1936,-0.2059,-0.2121,-0.2185,-0.2171,-0.2171,-0.2074,-0.2067,-0.2064,-0.2139,-0.2138,-0.2137,-0.2136,-0.2136,-0.153,-0.1546,-0.1591,-0.1644,-0.1789,-0.1851,-0.2021,-0.2169,-0.2256,-0.2292,-0.222,-0.2216,-0.2203,-0.2194,-0.2194,-0.2298,-0.2298,-0.2298,-0.2298,-0.147,-0.1493,-0.1517,-0.1577,-0.1687,-0.1805,-0.1915,-0.1965,-0.2055,-0.1958,-0.197,-0.1879,-0.1884,-0.1845,-0.1844,-0.1833,-0.1843,-0.1841,-0.184,-0.143,-0.1445,-0.1431,-0.1496,-0.1622,-0.1736,-0.1773,-0.1658,-0.1518,-0.1805,-0.1719,-0.2301,-0.2203,-0.2195,-0.2162,-0.215,-0.2143,0,0]},{"header":{"parameterUnit":"m.s-1","parameterCategory":2,"la1":30.2992,"la2":30.254,"lo1":-89.0895,"lo2":-89.0443,"dy":0.0025,"dx":0.0025,"nx":19,"ny":19,"refTime":"2026-05-21T09:00:00:Z","depth":"2","parameterNumber":3,"parameterNumberName":"V-component_of_CURRENTS"},"data":[0,0,0,-0.0058,-0.0057,0.0025,0.0026,0.0216,0.0218,0,0,0,0,0,0,0,0,0,0,0,-0.0104,-0.0104,-0.0058,-0.0057,0.0025,0.0026,0.0216,0.0218,0,0,0,0,0,0,0,0,0,0,0,-0.0103,-0.0104,-0.0105,-0.0057,0.0025,0.0026,0.0215,0.014,0,0,0,0,0,0,0,0,0,0,0.0053,-0.0018,-0.0104,-0.0105,-0.0056,0.0025,0.0026,0.0136,0.0145,0.0193,0,0.0166,0,0.0192,0.0229,0.023,0,0,0,-0.0025,-0.0026,-0.0003,-0.0105,-0.0056,0.0025,-0.0003,0.014,0.0151,0.0205,0.0169,0.0176,0.0195,0.023,0.0231,0.0355,0.0355,0,0,-0.0029,-0.0074,-0.0011,0.0002,-0.0084,-0.0006,-0.0001,0.0146,0.0137,0.017,0.0181,0.0198,0.0232,0.0233,0.0355,0.0355,0,0,0,-0.0064,-0.0078,-0.0059,-0.0006,-0.0001,-0.0004,0.0002,0.0131,0.0135,0.0183,0.02,0.0233,0.0235,0.0355,0.0355,0.0237,0,0,0,-0.0065,-0.01,-0.0063,-0.0086,-0.0006,0.0053,-0.0017,0.0125,0.0142,0.0199,0.0233,0.0236,0.0355,0.0355,0.024,0.0178,0,0,0,-0.0099,-0.0102,-0.0109,-0.0089,-0.0066,0.0051,0.0066,0.0129,0.0152,0.023,0.0237,0.0354,0.0355,0.0243,0.0184,0.0133,0,0,0,-0.0121,-0.017,-0.0111,-0.0151,-0.0067,-0.0014,0.0065,0.0107,0.016,0.0234,0.0355,0.0355,0.0244,0.0188,0.0137,0.0148,0.0131,0,0,-0.0192,-0.018,-0.0199,-0.0144,-0.0141,-0.002,0.0022,0.0111,0.0188,0.0318,0.0321,0.0239,0.0185,0.0134,0.0154,0.0137,0,0,0,-0.0225,-0.0252,-0.0236,-0.0227,-0.0151,-0.0062,0.004,0.0105,0.0194,0.0215,0.0275,0.0245,0.0216,0.0232,0.0219,0.0355,0.0355,0.0355,0.0355,-0.0364,-0.0323,-0.0353,-0.0292,-0.0235,-0.0093,-0.002,0.0095,0.0162,0.0181,0.0175,0.0092,0.0109,0.0099,0.0213,0.0212,0.0212,0.0211,0.0211,-0.0475,-0.0492,-0.0433,-0.0458,-0.0338,-0.0283,-0.0074,-0.0017,0.0059,0.013,0.0107,0.014,0.0078,0.0202,0.0204,0.0205,0.0206,0.0207,0.0207,-0.0556,-0.056,-0.0588,-0.0596,-0.0551,-0.0404,-0.0331,-0.0184,-0.0072,-0.008,-0.0056,-0.0053,-0.0004,-0.0111,-0.0111,-0.0112,-0.0112,-0.0113,-0.0113,-0.0626,-0.0642,-0.0719,-0.072,-0.0731,-0.0665,-0.0491,-0.0428,-0.0297,-0.0182,-0.0181,-0.0017,-0.0006,-0.0021,-0.0121,-0.0119,-0.0118,-0.0118,-0.0117,-0.0719,-0.0731,-0.0834,-0.0883,-0.0893,-0.0862,-0.0712,-0.0587,-0.0514,-0.0465,-0.0212,-0.0207,-0.0169,-0.0155,-0.0171,-0.0305,-0.0305,-0.0305,-0.0305,-0.0777,-0.079,-0.0926,-0.0995,-0.1011,-0.0933,-0.0877,-0.0585,-0.0357,-0.0112,-0.0119,-0.0024,-0.0023,0.0032,0.0041,0.0033,-0.0047,-0.0046,-0.0045,-0.0838,-0.087,-0.0974,-0.1044,-0.1063,-0.1023,-0.0918,-0.052,-0.0035,-0.0026,0.0025,-0.0307,-0.0185,-0.0176,-0.01,-0.0082,-0.0098,0,0]}],[{"header":{"parameterUnit":"m.s-1","parameterCategory":2,"la1":30.2992,"la2":30.254,"lo1":-89.0895,"lo2":-89.0443,"dy":0.0025,"dx":0.0025,"nx":19,"ny":19,"refTime":"2026-05-21T09:00:00:Z","depth":"4","parameterNumber":2,"parameterNumberName":"U-component_of_CURRENTS"},"data":[0,0,0,-0.0877,-0.0878,-0.0991,-0.0992,-0.118,-0.1182,0,0,0,0,0,0,0,0,0,0,0,-0.0839,-0.0839,-0.0877,-0.0879,-0.0991,-0.0992,-0.118,-0.1182,0,0,0,0,0,0,0,0,0,0,0,-0.0839,-0.0839,-0.0839,-0.0879,-0.0991,-0.0992,-0.118,-0.109,0,0,0,0,0,0,0,0,0,0,-0.0978,-0.0933,-0.0839,-0.0839,-0.0879,-0.0991,-0.0992,-0.1086,-0.1096,-0.1133,0,-0.1132,0,-0.1149,-0.1193,-0.1193,0,0,0,-0.0907,-0.0924,-0.0943,-0.0839,-0.088,-0.099,-0.0948,-0.1091,-0.1103,-0.1146,-0.1135,-0.1141,-0.1153,-0.1194,-0.1194,-0.1337,-0.1338,0,0,-0.09,-0.0879,-0.0935,-0.0949,-0.0887,-0.0944,-0.0951,-0.1098,-0.1108,-0.1135,-0.1146,-0.1156,-0.1195,-0.1196,-0.1337,-0.1337,0,0,0,-0.0864,-0.0875,-0.089,-0.0942,-0.0952,-0.0947,-0.0955,-0.1102,-0.1103,-0.1148,-0.1158,-0.1196,-0.1198,-0.1337,-0.1337,-0.1365,0,0,0,-0.0861,-0.0851,-0.0887,-0.0878,-0.0948,-0.1023,-0.0956,-0.1093,-0.111,-0.1157,-0.1196,-0.1199,-0.1336,-0.1337,-0.1364,-0.1357,0,0,0,-0.0838,-0.0849,-0.0852,-0.0876,-0.0911,-0.1021,-0.1033,-0.1098,-0.1115,-0.1193,-0.12,-0.1336,-0.1337,-0.1362,-0.1355,-0.136,0,0,0,-0.0828,-0.0814,-0.0851,-0.0875,-0.0909,-0.1006,-0.1032,-0.112,-0.1187,-0.1197,-0.1336,-0.1337,-0.1362,-0.1354,-0.1359,-0.1199,0,0,0,-0.0801,-0.0811,-0.0834,-0.0869,-0.0903,-0.0994,-0.1094,-0.1183,-0.121,-0.1295,-0.1299,-0.1364,-0.1355,-0.136,-0.1248,0,0,0,0,-0.0822,-0.0841,-0.087,-0.09,-0.0965,-0.1085,-0.1175,-0.121,-0.1296,-0.1246,-0.1372,-0.1365,-0.1367,-0.1272,-0.1341,-0.1341,-0.1341,-0.1341,-0.1341,-0.0781,-0.0817,-0.0861,-0.0946,-0.1014,-0.1138,-0.1231,-0.1297,-0.1333,-0.1364,-0.1396,-0.1425,-0.1327,-0.1413,-0.1413,-0.1413,-0.1413,-0.1413,-0.1414,-0.0781,-0.0795,-0.0878,-0.0945,-0.1044,-0.1147,-0.1301,-0.1345,-0.1418,-0.1427,-0.1428,-0.1317,-0.1417,-0.1416,-0.1415,-0.1415,-0.1415,-0.1415,-0.1415,-0.0722,-0.0725,-0.0811,-0.088,-0.0997,-0.117,-0.1258,-0.1369,-0.1432,-0.1451,-0.1345,-0.1436,-0.1424,-0.1459,-0.1459,-0.1459,-0.1459,-0.1459,-0.1459,-0.0599,-0.0669,-0.0729,-0.0832,-0.0904,-0.104,-0.124,-0.1304,-0.14,-0.1345,-0.1457,-0.144,-0.1438,-0.1427,-0.1459,-0.1459,-0.1459,-0.1459,-0.1459,-0.0498,-0.0524,-0.0586,-0.0658,-0.0823,-0.0892,-0.1104,-0.1221,-0.1249,-0.1233,-0.1284,-0.1293,-0.126,-0.1263,-0.1244,-0.1224,-0.1222,-0.122,0,-0.0415,-0.0432,-0.0501,-0.0563,-0.0653,-0.0822,-0.0892,-0.1005,-0.1101,-0.1061,-0.1224,-0.1277,-0.1284,-0.1244,-0.1244,-0.1218,0,0,0,-0.0383,-0.0406,-0.0392,-0.0453,-0.0573,-0.0744,-0.0913,-0.093,-0.107,-0.1093,-0.1171,-0.1184,-0.1351,-0.146,-0.1431,-0.1429,-0.1409,0,0]},{"header":{"parameterUnit":"m.s-1","parameterCategory":2,"la1":30.2992,"la2":30.254,"lo1":-89.0895,"lo2":-89.0443,"dy":0.0025,"dx":0.0025,"nx":19,"ny":19,"refTime":"2026-05-21T09:00:00:Z","depth":"4","parameterNumber":3,"parameterNumberName":"V-component_of_CURRENTS"},"data":[0,0,0,0.0035,0.0033,-0.0015,-0.0015,0.0028,0.0029,0,0,0,0,0,0,0,0,0,0,0,0.0058,0.0057,0.0035,0.0033,-0.0015,-0.0015,0.0028,0.0029,0,0,0,0,0,0,0,0,0,0,0,0.0058,0.0057,0.0056,0.0033,-0.0015,-0.0015,0.0028,0.0042,0,0,0,0,0,0,0,0,0,0,0.0078,0.0083,0.0057,0.0056,0.0032,-0.0015,-0.0015,0.0042,0.0042,0.0075,0,0.0055,0,0.0035,0.0033,0.0033,0,0,0,0.005,0.0083,0.0061,0.0056,0.0032,-0.0015,0.0011,0.0041,0.0041,0.0075,0.0056,0.0056,0.0036,0.0033,0.0033,0.0054,0.0054,0,0,0.0053,0.0064,0.006,0.006,0.0005,0.0013,0.001,0.004,0.0042,0.0056,0.0057,0.0036,0.0033,0.0034,0.0054,0.0054,0,0,0,0.0049,0.0066,0.0041,0.0059,0.0037,0.0011,0.0007,0.0041,0.0029,0.0057,0.0037,0.0034,0.0034,0.0054,0.0054,0.0038,0,0,0,0.0051,0.0062,0.0042,0.0051,0.0035,0.0025,0.0008,0.0027,0.0029,0.0037,0.0034,0.0035,0.0055,0.0054,0.0039,0.0022,0,0,0,0.0062,0.0064,0.0051,0.0051,0.002,0.0023,0.0013,0.0027,0.0017,0.0033,0.0035,0.0055,0.0054,0.004,0.0024,0.01,0,0,0,0.0086,0.003,0.0051,-0.0014,0.002,-0.0032,0.0013,-0.001,-0.0004,0.0034,0.0055,0.0054,0.004,0.0025,0.01,0.0092,0,0,0,0.002,0.0023,-0.0019,-0.0003,-0.009,-0.0023,-0.0058,-0.0028,0.0007,0.0056,0.0055,0.0039,0.0024,0.01,0.0065,0,0,0,0,-0.0038,-0.0062,-0.0085,-0.0127,-0.0146,-0.0114,-0.0083,-0.0042,0.0007,0.0004,0.0034,0.0025,0.0074,0.0067,0.0052,0.0052,0.0052,0.0052,0.0052,-0.0075,-0.0113,-0.0186,-0.0212,-0.022,-0.0178,-0.0133,-0.0063,-0.0029,-0.0001,0.0009,0.0046,0.0034,0.0011,0.0011,0.001,0.001,0.001,0.001,-0.0168,-0.0215,-0.024,-0.0323,-0.029,-0.0288,-0.0166,-0.011,-0.0,0.0001,0.0051,0.0043,0.0009,0.0009,0.0009,0.0009,0.001,0.001,0.001,-0.0186,-0.0222,-0.0276,-0.0374,-0.0389,-0.0334,-0.0255,-0.0151,-0.0027,0.0017,0.0075,0.0059,0.0069,0.0069,0.0069,0.0069,0.007,0.007,0.007,-0.0184,-0.0248,-0.0339,-0.0415,-0.0451,-0.0422,-0.0285,-0.0169,-0.003,0.0054,0.0031,0.0067,0.0065,0.0074,0.0074,0.0073,0.0073,0.0072,0.0072,-0.0222,-0.025,-0.0378,-0.0438,-0.0505,-0.0465,-0.0348,-0.0107,0.0029,0.0148,0.0106,0.0104,0.0125,0.0122,0.0134,0.0151,0.0151,0.0151,0,-0.0225,-0.0256,-0.0405,-0.0483,-0.0509,-0.0466,-0.0283,-0.0132,0.004,0.0019,0.003,-0.003,-0.0027,-0.0018,-0.0019,-0.0015,0,0,0,-0.0247,-0.0289,-0.0372,-0.0467,-0.0497,-0.0335,-0.0229,-0.014,-0.0023,0.0145,0.015,0.0151,0.0081,0.0085,0.0113,0.011,0.0127,0,0]}]]